Flag for U.S.A. Weather past 2 weeks in Glendale, California, U.S.A.

Now
90 °F

Sunny.


Feels Like: 86 °F
Forecast: 60 / 88 °F
Wind: 12 mph from Southwest

Location: Burbank-Glendale-Pasadena Airport

Current Time: Mar 26, 2015 at 3:37:15 PM

Latest Report: Mar 26, 2015 at 2:53 PM


Visibility: 10 mi

Pressure: 29.98 "Hg

Humidity: 13%

Dew point: 32 °F

Location of GlendaleLocation

Historic Weather in Glendale — Graph

°F

Glendale temperature yesterday

Maximum temperature yesterday: 87 °F (at 2:53 PM)
Minimum temperature yesterday: 57 °F (at 6:53 AM)
Average temperature yesterday: 72 °F

Past Weeks' High & Low Weather Summary

 TemperatureHumidityPressure
High90 °F (Mar 14, 1:53 PM)90% (Mar 21, 5:53 AM)30.16 "Hg (Mar 21, 5:53 AM)
Low53 °F (Mar 23, 6:53 AM)11% (Mar 13, 12:53 PM)29.84 "Hg (Mar 16, 5:53 PM)
Average70 °F45%30.00 "Hg
* Reported Mar 11 1:53 PM — Mar 26 1:53 PM, Glendale, Weather by CustomWeather, © 2015

Note: Actual official high and low records may vary slightly from our data, if they occured in-between our weather recording intervals... More about our weather records

Advertising

Glendale weather history for previous 24 hours

 ConditionsComfort  
Time TempWeatherWind HumidityBarometerVisibility
1:53 PM
Thu, Mar 26
89 °FSunny.5 mph12%30.00 "Hg10 mi
12:53 PM89 °FSunny.10 mph11%30.03 "Hg10 mi
11:53 AM87 °FSunny.6 mph12%30.05 "Hg10 mi
10:53 AM83 °FSunny.No wind17%30.06 "Hg10 mi
9:53 AM76 °FSunny.No wind24%30.07 "Hg10 mi
8:53 AM69 °FSunny.No wind30%30.06 "Hg10 mi
7:53 AM63 °FSunny.No wind37%30.05 "Hg10 mi
6:53 AM59 °FClear.No wind41%30.04 "Hg10 mi
5:53 AM59 °FClear.No wind39%30.03 "Hg10 mi
4:53 AM59 °FClear.No wind39%30.03 "Hg10 mi
3:53 AM61 °FClear.No wind35%30.02 "Hg10 mi
2:53 AM63 °FClear.No wind37%30.01 "Hg10 mi
1:53 AM63 °FClear.No wind40%30.02 "Hg10 mi
12:53 AM65 °FClear.No wind32%30.01 "Hg10 mi
11:53 PM
Wed, Mar 25
68 °FClear.3 mph26%30.01 "Hg10 mi
10:53 PM70 °FClear.7 mph28%30.01 "Hg10 mi
9:53 PM72 °FClear.3 mph40%30.00 "Hg10 mi
8:53 PM75 °FClear.5 mph34%29.99 "Hg10 mi
7:53 PM77 °FSunny.3 mph29%29.97 "Hg10 mi
6:53 PM79 °FSunny.6 mph27%29.97 "Hg10 mi
5:53 PM82 °FSunny.6 mph22%29.96 "Hg10 mi
4:53 PM83 °FSunny.6 mph23%29.96 "Hg10 mi
3:53 PM85 °FSunny.12 mph22%29.96 "Hg10 mi
Weather by CustomWeather, © 2015

See weather overviewHow to use our weather pages